SL-8 DEB, 3038

Orbit data source: Space-Track

SL-8 DEB, 3038 is space debris in LEO originally from a launch on Mon, 15 Mar 1965 UTC launched from the Tyuratam Missile And Space Complex (TTMTR). Debris objects in space refer to the collection of defunct objects orbiting the Earth. Examples of debris include non-operational satellites, rocket bodies, and fragments generated from explosions, collisions, or faulty payload assembly.

Loading next visibility...
Identifier
3038, 1965-020EN
Orbit
LEO
Country
Flag of CISCIS
Related business
Manufacturer
Unknown
Mission
Spacecraft
Bus & Motor
Unknown
Mass
Unknown
Launch date (UTC)
1965-03-15 (61 years ago)
Launch vehicle
Unknown
Launch site
Tyuratam Missile And Space Complex (TTMTR)
Object type
Payload
Rocket body
Debris
Shape & HBR
Unknown
Radar Cross Section
Medium (>0.1 m² and <1 m²)

Expand to show TLE details & history
Last TLE update: 1 day ago

TLE from 1 day ago
0 SL-8 DEB
1 03038U 65020EN  25260.00535249  .00015542  00000-0  34359-2 0  9993
2 03038  56.1609 246.5216 0405033  19.7307 341.8850 14.17090590187002
Epoch: 2025-09-17T00:07Z
TLE epoch observation values (Epoch: 2025-09-17T00:07:42.455Z)
Latitude
-0.00005°
Longitude
-111.59284°
Altitude
559.889 km
Speed
7.726 km/s
True Right ascension
16h 26m 05s
True Declination
0° 00' 00"
Sunlit
Object was in daylight at epoch
Visualization orbit readout
Latitude
Unknown
Longitude
Unknown
Altitude
Unknown
Speed
Unknown
Apparent Right ascension
Unknown
Apparent Declination
Unknown
Sunlit
N/A
Visualization observer readout
Local Sidereal Time
01:34:27
Azimuth
Unknown
Elevation
Unknown
Doppler factor
Unknown
Orbital elements
Apogee altitude
1,127.156 km
Perigee altitude
542.844 km
Semi-major axis
7,213.137 km
Eccentricity
0.0405
Inclination
56.1609°
RAAN
246.5216°
Arg. of periapsis
19.7307°
True anomaly
340.36927°
Mean anomaly
341.885°
Eccentric anomaly
341.13462°
Mean motion
3.54288 °/min
Orbital period
101.61 mins
BSTAR
0.0034359
Loading maneuver chart data...
Computing Atmospheric mass density...
Loading historical data...
Loading historical data...
Loading historical data...
Loading historical data...
Loading historical data...
Loading historical data...
Loading historical data...

Documentation

Showing up to 5 results
|